Regional Weather Roundup
Issued by NWS

Home | Current Version | Previous Version | Text Only | Print | Product List | Glossary On
Versions: 1 2 3 4 5 6 7 8 9 10 11 12 13 14 15 16 17 18 19 20 21 22 23 24 25 26 27
000
ASPQ40 PGUM 191812
RWRPQ
WEATHER ROUNDUP FOR THE MARIANAS AND MICRONESIA
NATIONAL WEATHER SERVICE TIYAN GU
400 AM CHST MON NOV 20 2017

GUZ001>004-191900-
MARIANA ISLANDS-

CITY           SKY/WX    TMP DP  RH WIND       PRES   REMARKS
GUAM AIRPORT   CLEAR     81  75  83 E9        29.83S
ANDERSEN AFB   PTCLDY    79  73  83 NE14      29.83F
ROTA AIRPORT   NOT AVBL
TINIAN AP      NOT AVBL
SAIPAN AP      CLOUDY    81  77  89 NE9       29.82F

$$

PMZ161-191900-
REPUBLIC OF PALAU-

CITY           SKY/WX    TMP DP  RH WIND       PRES   REMARKS
KOROR AP       CLOUDY    82  77  83 NE12G20   29.73F HX  91
KOROR WSO      MOCLDY    82  75  78 NE6       29.72F

$$

PMZ171>174-191900-
FEDERATED STATES OF MICRONESIA-

CITY           SKY/WX    TMP DP  RH WIND       PRES   REMARKS
YAP AIRPORT    MOCLDY    81  77  89 VRB3      29.75S
CHUUK AP       CLOUDY    81  77  89 N12       29.70S
POHNPEI AP     NOT AVBL
POHNPEI WSO    CLOUDY    81  77  89 E6        29.75R
KOSRAE AP      NOT AVBL

$$

PMZ181-191900-
REPUBLIC OF THE MARSHALL ISLANDS-

CITY           SKY/WX    TMP DP  RH WIND       PRES   REMARKS
KWAJALEIN AP   DRIZZLE   77  75  94 NE3       29.76R
MAJURO AP      NOT AVBL
MAJURO WSO     NOT AVBL

$$





USA.gov is the U.S. government's official web portal to all federal, state and local government web resources and services.